This is the latest recevied weather packets stored in our database for station/object DG4MND-4. If no packets are shown the sender has not sent any weather packets the latest 10 day(s).
| Time | Temp. | Humidity | Pressure | Rain* | Wind** | Luminosity | Snow |
|---|---|---|---|---|---|---|---|
| 1777758657 | 11.11° C | 79% | 1016.9 hPa | 0 mm | - | - | - |
| 1777758054 | 11.11° C | 77% | 1016.8 hPa | 0 mm | - | - | - |
| 1777757450 | 11.67° C | 77% | 1016.8 hPa | 0 mm | - | - | - |
| 1777756852 | 11.11° C | 77% | 1016.7 hPa | 0 mm | - | - | - |
| 1777756248 | 11.67° C | 76% | 1016.9 hPa | 0 mm | - | - | - |
| 1777755643 | 12.22° C | 75% | 1016.9 hPa | 0 mm | - | - | - |
| 1777755037 | 12.22° C | 74% | 1017 hPa | 0 mm | - | - | - |
| 1777754433 | 12.78° C | 73% | 1017.1 hPa | 0 mm | - | - | - |
| 1777753833 | 12.78° C | 71% | 1017.1 hPa | 0 mm | - | - | - |
| 1777753226 | 13.33° C | 68% | 1017.2 hPa | 0 mm | - | - | - |
| 1777752626 | 13.33° C | 66% | 1017.3 hPa | 0 mm | - | - | - |
| 1777752022 | 13.89° C | 64% | 1017.3 hPa | 0 mm | - | - | - |
| 1777751416 | 14.44° C | 64% | 1017.4 hPa | 0 mm | - | - | - |
| 1777750873 | 14.44° C | 64% | 1017.2 hPa | 0 mm | - | - | - |
| 1777750272 | 14.44° C | 62% | 1017.2 hPa | 0 mm | - | - | - |
| 1777749068 | 15.56° C | 59% | 1017.2 hPa | 0 mm | - | - | - |
| 1777748462 | 16.11° C | 56% | 1017.1 hPa | 0 mm | - | - | - |
| 1777747856 | 16.67° C | 54% | 1017 hPa | 0 mm | - | - | - |
| 1777747253 | 17.22° C | 52% | 1016.9 hPa | 0 mm | - | - | - |
| 1777746652 | 18.33° C | 49% | 1016.8 hPa | 0 mm | - | - | - |
| 1777746046 | 19.44° C | 46% | 1016.9 hPa | 0 mm | - | - | - |
| 1777745445 | 21.11° C | 41% | 1016.8 hPa | 0 mm | - | - | - |
| 1777744838 | 21.11° C | 40% | 1016.8 hPa | 0 mm | - | - | - |
| 1777744237 | 21.67° C | 37% | 1016.9 hPa | 0 mm | - | - | - |
| 1777743634 | 22.22° C | 35% | 1016.8 hPa | 0 mm | - | - | - |
* Rain latest hour (hover to see other rain measurements)
** Current wind speed in m/s (hover to see current wind gust speed)